AirNav   Everest Fuels
 
 1131 users online  

36S Happy Camp Airport
Happy Camp, California, USA

GOING TO HAPPY CAMP?


FAA INFORMATION EFFECTIVE 31 DECEMBER 2020

Location

FAA Identifier: 36S
Lat/Long: 41-47-26.4460N 123-23-20.2000W
41-47.440767N 123-23.336667W
41.7906794,-123.3889444
(estimated)
Elevation: 1209 ft. / 368.5 m (surveyed)
Variation: 18E (1985)
Time zone: UTC -8 (UTC -7 during Daylight Saving Time)
Zip code: 96039

Airport Operations

Airport use: Open to the public
Activation date: 10/1951
Control tower: no
ARTCC: SEATTLE CENTER
FSS: RANCHO MURIETA FLIGHT SERVICE STATION
NOTAMs facility: RIU (NOTAM-D service available)
Attendance: UNATNDD
Wind indicator: yes
Segmented circle: yes

Airport Communications

CTAF: 122.9

Nearby radio navigation aids

VOR radial/distance  VOR name  Freq  Var
FJSr289/33.2FORT JONES VOR/DME109.6019E
CECr075/38.1CRESCENT CITY VORTAC109.0014E

Airport Services

Parking: tiedowns
Airframe service: NONE
Powerplant service: NONE
Bottled oxygen: NONE
Bulk oxygen: NONE

Runway Information

Runway 4/22

Dimensions: 3000 x 50 ft. / 914 x 15 m
Surface: asphalt, in fair condition
Weight bearing capacity: 
Single wheel: 30.0
RUNWAY 4  RUNWAY 22
Latitude: 41-47.298167N41-47.563167N
Longitude: 123-23.608667W123-23.051333W
Traffic pattern: rightleft
Markings: basic, in fair conditionbasic, in fair condition
Runway end identifier lights: nono
Obstructions: 25 ft. tree, 500 ft. from runway, 120 ft. left of centerline, 12:1 slope to clear
RWY 04 HAS 3 FT FENCE O FEET FROM RWY END AND 80 FEET L.
10 ft. brush, 200 ft. from runway, 125 ft. right of centerline
RY 22 HAS 8 FT SHRUB 0 FEET FM RY END AND 115 FT RIGHT.

Airport Ownership and Management from official FAA records

Ownership: Publicly-owned
Owner: U.S. FOREST SERVICE
63822 HIGHWAY 96
HAPPY CAMP, CA 96039-0377
Phone 530-493-1730
OPERD/MAINTD BYCOUNTY OF SISKIYOU COUNTY.
Manager: ETHAN GARRETT
190 GREENHORN ROAD
YREKA, CA 96097
Phone (530) 842-8259
DIRECTOR OF AIRPORTS OFFICE IN YREKA.

Airport Operational Statistics

Aircraft based on the field: 1
Helicopters: 1
  • US FOREST SVC MANS HELIPORT MAY THROUGH SEP.
    
Aircraft operations: 150/year *
100% transient general aviation
* for 12-month period ending 31 December 2017

Additional Remarks

E94 US FOREST SERVICE.
RWY 22 HAS +35' TREES 600' FROM THLD 125' EITHER SIDE OF CNTRLN.
FOR CD CTC SEATTLE ARTCC AT 253-351-3694.

Instrument Procedures

There are no published instrument procedures at 36S.

Some nearby airports with instrument procedures:

KCEC - Jack Mc Namara Field Airport (38 nm W)
KSIY - Siskiyou County Airport (41 nm E)
KMFR - Rogue Valley International - Medford Airport (42 nm NE)
3S8 - Grants Pass Airport (43 nm N)
O46 - Weed Airport (46 nm SE)
 
Loc | Ops | Rwys | IFR | FBO | Links
Com | Nav | Svcs | Stats | Notes
Area around 36S (Happy Camp Airport)
 
Road maps at: MapQuest Bing Google
 
Aerial photo
WARNING: Photo may not be current or correct
Aerial photo of 36S (Happy Camp Airport)
Do you have a better or more recent aerial photo of Happy Camp Airport that you would like to share? If so, please send us your photo.

 
Sectional chart

 
Airport distance calculator
Flying to Happy Camp Airport? Find the distance to fly.

From to 36S

Sunrise and sunset
Times for 21-Jan-2021
 Local
(UTC-8)
 Zulu
(UTC)
Morning civil twilight07:0615:06
Sunrise07:3615:36
Sunset17:1401:14
Evening civil twilight17:4401:44

Current date and time
Zulu (UTC)  21-Jan-2021 23:02:30
Local (UTC-8)  21-Jan-2021 15:02:30
 
METAR
KCEC 
37nm W 
212256Z AUTO 19015KT 7SM -RA SCT014 BKN100 11/07 A2998 RMK AO2 RAB16 SLP152 P0000 T01110072
KSIY 
41nm E 
212253Z AUTO 35004KT 10SM OVC100 10/M03 A2994 RMK AO2 SLP154 T01001033
KMFR 
42nm NE 
212253Z 19003KT 10SM OVC110 09/M01 A2992 RMK AO2 SLP137 T00941011
K3S8 
43nm N 
212255Z AUTO 00000KT 10SM OVC100 09/01 A2995 RMK AO2
KBOK 
44nm NW 
212256Z AUTO 15010KT 10SM CLR 11/06 A2998 RMK AO2 SLP152 T01110061
TAF
KCEC 
37nm W 
212107Z 2121/2218 18010KT P6SM FEW050 BKN110 OVC200 TEMPO 2121/2124 18011G16KT FM220200 17007KT P6SM BKN050 OVC100 FM220400 16008KT P6SM VCSH SCT030 OVC050 FM220600 14008KT 6SM -RA BR OVC030 FM221200 07005KT 5SM -RA BR SCT019 OVC025 FM221730 33010KT 6SM -RA BR OVC025
KMFR 
42nm NE 
211746Z 2118/2218 00000KT P6SM SCT120 FM220700 VRB03KT P6SM SCT050 OVC090 FM221100 VRB03KT P6SM -RA SCT020 OVC070 FM221300 30003KT P6SM OVC025
NOTAMs
Click for the latest NOTAMs
NOTAMs are issued by the DoD/FAA and will open in a separate window not controlled by AirNav.

 

 
 

Would you like to see your business listed on this page?

 If your business provides an interesting product or service to pilots, flight crews, aircraft, or users of the Happy Camp Airport, you should consider listing it here.  To start the listing process, click on the button below
 
Add a business
 

Other Pages about Happy Camp Airport

www.co.siskiyou.ca.us/...
 
Update a link
 
Copyright © AirNav, LLC. All rights reserved. Privacy Policy  Contact